Location: Newark
(22.3060°N, 114.2134°E)
Time: 18:19:15
(UTC+00:00)

Vanguard 2 Rocket - Visible Passes

Search period start: 27 July 2021 00:00
Search period end: 06 August 2021 00:00
Orbit: 554 x 3325 km, 32.9° (Epoch: 26 July)

Date Brightness Start Highest point End Pass type
(mag) Time Alt. Az. Time Alt. Az. Time Alt. Az.
27 Jul 8.9 20:57:14 10° S 20:58:39 11° SSE 20:59:58 10° SE visible
29 Jul 8.0 21:08:13 10° SSW 21:12:59 24° SSE 21:16:35 10° E visible
30 Jul 8.7 20:10:56 14° S 20:13:09 17° SSE 20:16:30 10° ESE visible
31 Jul 9.4 19:14:42 11° SE 19:14:42 11° SE 19:15:23 10° SE visible
31 Jul 7.0 21:21:12 10° SW 21:27:13 49° SSE 21:31:20 10° ENE visible
01 Aug 7.9 20:24:15 22° SSW 20:27:34 32° SSE 20:31:59 10° E visible
02 Aug 8.7 19:27:59 23° SSE 19:27:59 23° SSE 19:32:17 10° ESE visible
03 Aug 9.6 18:31:41 11° ESE 18:31:41 11° ESE 18:31:59 10° ESE visible
03 Aug 7.1 20:37:29 24° SW 20:41:48 60° SSE 20:46:33 10° ENE visible
04 Aug 7.9 19:41:09 40° S 19:41:57 42° SSE 19:47:20 10° E visible
05 Aug 9.0 18:44:47 24° ESE 18:44:47 24° ESE 18:47:47 10° E visible
05 Aug 6.8 20:50:35 20° WSW 20:55:54 81° NNW 21:00:43 10° ENE visible
